{"data":{"norad_id":64300,"epoch":"2026-05-25T01:16:04.893024Z","epoch_age_seconds":70552,"freshness":"FRESH","line1":"1 64300U 25123K   26145.05283441  .00002838  00000+0  24549-3 0  9998","line2":"2 64300  70.0024   2.0562 0002874 268.9247  91.1583 14.98337549 53055","mean_motion":14.98337549,"eccentricity":0.0002874,"inclination_deg":70.0024,"raan_deg":2.0562,"arg_perigee_deg":268.9247,"mean_anomaly_deg":91.1583,"bstar":0.00024549,"rev_number":5305,"period_min":96.106514914551,"perigee_km":570.03506765502,"apogee_km":574.03002511028,"semimajor_km":6950.1695463826,"source":"CELESTRAK","updated_at":"2026-05-25T13:38:20.366840Z"}}